Independence, IA

5:44 PM CST on November 18, 2019 (GMT -0600)
Independence Municipal

Weather History for KIIB - October, 2019

Change the Weather History Date:

Tuesday, October 22, 2019

  Actual Average Record
Temperature  
Mean Temperature 44 °F -  
Max Temperature 51 °F 65 °F 82 °F (1963)
Min Temperature 36 °F 36 °F 13 °F (1976)
Degree Days  
Heating Degree Days 22    
Moisture  
Dew Point 36 °F    
Average Humidity 76    
Maximum Humidity 94    
Minimum Humidity 45    
Precipitation  
Precipitation 0.05 in - - ()
Sea Level Pressure  
Sea Level Pressure 29.61 in    
Wind  
Wind Speed 17 mph ()    
Max Wind Speed 25 mph    
Max Gust Speed 38 mph    
Visibility 8.8 miles    
Events Rain    
Averages and records for this station are not official NWS values.
T = Trace of Precipitation, MM = Missing Value Source: Averaged Metar Reports

Daily Weather History Graph

Daily Weather History Graph

Search for Another Location

Airport or City:

Astronomy

Oct. 22, 2019 Rise Set
Actual Time 7:28 AM CDT 6:15 PM CDT
Civil Twilight 7:00 AM CDT 6:43 PM CDT
Nautical Twilight 6:27 AM CDT 7:16 PM CDT
Astronomical Twilight 5:54 AM CDT 7:48 PM CDT
Moon 12:28 AM CDT (10/22) 3:34 PM CDT (10/22)
Length of Visible Light 11h 43m
Length of Day
10h 46m
Last Quarter, 37% of the Moon is Illuminated
Oct 22
Last Quarter
Oct 27
New
Nov 4
First Quarter
Nov 12
Full
Nov 19
Last Quarter

Hourly Weather History & Observations

Time (CDT) Temp. Windchill Dew Point Humidity Pressure Visibility Wind Dir Wind Speed Gust Speed Precip Events Conditions
12:15 AM 44.2 °F 36.2 °F 42.1 °F 92% 29.34 in 7.0 mi WSW 19.6 mph 29.9 mph 0.01 in Rain Light Rain
12:35 AM 44.2 °F 35.4 °F 42.4 °F 93% 29.34 in 7.0 mi WSW 23.0 mph 32.2 mph 0.01 in Rain Light Rain
12:55 AM 43.9 °F 35.4 °F 41.4 °F 91% 29.34 in 7.0 mi WSW 20.7 mph 31.1 mph 0.01 in Rain Light Rain
1:15 AM 43.7 °F 35.4 °F 41.7 °F 93% 29.33 in 5.0 mi WSW 19.6 mph 28.8 mph N/A Rain Light Rain
1:35 AM 43.9 °F 35.4 °F 42.3 °F 94% 29.34 in 4.0 mi WSW 20.7 mph 28.8 mph 0.01 in Rain Light Rain
1:55 AM 43.9 °F 35.2 °F 41.7 °F 92% 29.35 in 7.0 mi West 21.9 mph 29.9 mph 0.02 in Rain Light Rain
2:15 AM 43.7 °F 34.7 °F 41.9 °F 93% 29.35 in 5.0 mi West 23.0 mph 31.1 mph N/A Rain Light Rain
2:35 AM 43.7 °F 35.2 °F 41.0 °F 90% 29.36 in 10.0 mi West 20.7 mph 34.5 mph N/A   Overcast
2:55 AM 43.7 °F 35.0 °F 41.0 °F 90% 29.37 in 5.0 mi West 21.9 mph 38.0 mph N/A   Drizzle
3:15 AM 43.3 °F 34.7 °F 41.0 °F 91% 29.38 in 3.0 mi West 20.7 mph 29.9 mph N/A Rain Rain
3:35 AM 43.5 °F 34.5 °F 40.5 °F 89% 29.39 in 5.0 mi West 23.0 mph 32.2 mph 0.01 in Rain Light Rain
3:55 AM 43.2 °F 33.8 °F 40.3 °F 90% 29.40 in 4.0 mi West 24.2 mph 33.4 mph 0.01 in Rain Light Rain
4:15 AM 42.8 °F 33.5 °F 40.3 °F 91% 29.41 in 4.0 mi West 23.0 mph 36.8 mph N/A Rain Light Rain
4:35 AM 42.8 °F 34.3 °F 40.3 °F 91% 29.42 in 4.0 mi West 19.6 mph 31.1 mph 0.01 in Rain Light Rain
4:55 AM 42.4 °F 33.5 °F 40.1 °F 91% 29.44 in 5.0 mi West 20.7 mph 32.2 mph 0.01 in Rain Light Rain
5:15 AM 42.8 °F 33.8 °F 40.1 °F 90% 29.45 in 10.0 mi West 21.9 mph 34.5 mph N/A Rain Light Rain
5:35 AM 42.8 °F 34.5 °F 40.1 °F 90% 29.47 in 5.0 mi West 18.4 mph 32.2 mph N/A Rain Light Rain
5:55 AM 42.8 °F 34.3 °F 40.1 °F 90% 29.48 in 10.0 mi West 19.6 mph 28.8 mph N/A   Overcast
6:15 AM 42.8 °F 34.8 °F 40.1 °F 90% 29.49 in 10.0 mi West 17.3 mph 33.4 mph N/A   Overcast
6:55 AM 42.6 °F 34.9 °F 39.6 °F 89% 29.51 in 7.0 mi West 16.1 mph 32.2 mph N/A   Overcast
7:35 AM 42.4 °F 34.1 °F 39.4 °F 89% 29.53 in 10.0 mi West 18.4 mph 25.3 mph N/A   Overcast
7:55 AM 42.8 °F 35.1 °F 39.2 °F 87% 29.54 in 10.0 mi West 16.1 mph 28.8 mph N/A   Overcast
8:15 AM 42.3 °F 34.1 °F 39.2 °F 89% 29.55 in 10.0 mi West 17.3 mph 26.5 mph N/A   Overcast
8:35 AM 42.3 °F 33.1 °F 38.7 °F 87% 29.57 in 10.0 mi West 21.9 mph 25.3 mph N/A   Overcast
8:55 AM 42.3 °F 34.4 °F 38.3 °F 86% 29.58 in 10.0 mi West 16.1 mph 31.1 mph N/A   Overcast
9:15 AM 42.3 °F 33.8 °F 38.1 °F 85% 29.59 in 10.0 mi West 18.4 mph 27.6 mph N/A   Overcast
9:35 AM 42.4 °F 34.1 °F 38.1 °F 85% 29.60 in 10.0 mi West 18.4 mph 28.8 mph N/A   Overcast
9:55 AM 42.8 °F 33.5 °F 37.8 °F 82% 29.60 in 10.0 mi West 23.0 mph 31.1 mph N/A   Overcast
10:15 AM 43.2 °F 34.0 °F 37.6 °F 81% 29.61 in 10.0 mi West 23.0 mph 34.5 mph N/A   Overcast
10:35 AM 43.5 °F 34.0 °F 37.6 °F 80% 29.61 in 10.0 mi West 25.3 mph 36.8 mph N/A   Overcast
10:55 AM 43.7 °F 35.4 °F 37.6 °F 79% 29.62 in 10.0 mi West 19.6 mph 31.1 mph N/A   Overcast
11:15 AM 44.1 °F 36.8 °F 37.6 °F 78% 29.63 in 10.0 mi West 16.1 mph 29.9 mph N/A   Overcast
11:35 AM 43.9 °F 34.7 °F 37.4 °F 78% 29.64 in 10.0 mi West 24.2 mph 32.2 mph N/A   Overcast
11:55 AM 43.9 °F 35.7 °F 37.4 °F 78% 29.65 in 7.0 mi West 19.6 mph 26.5 mph N/A   Overcast
12:15 PM 43.9 °F 35.2 °F 36.9 °F 76% 29.65 in 10.0 mi West 21.9 mph 31.1 mph N/A   Overcast
12:35 PM 44.1 °F 35.2 °F 36.5 °F 75% 29.65 in 10.0 mi West 23.0 mph 32.2 mph N/A   Overcast
12:55 PM 44.8 °F 36.9 °F 36.5 °F 73% 29.65 in 10.0 mi West 19.6 mph 32.2 mph N/A   Overcast
1:15 PM 45.9 °F 38.3 °F 36.7 °F 70% 29.66 in 7.0 mi West 19.6 mph 31.1 mph N/A   Overcast
1:35 PM 46.6 °F - 35.8 °F 66% 29.66 in 10.0 mi West 19.6 mph 29.9 mph N/A   Mostly Cloudy
1:55 PM 47.3 °F - 36.7 °F 67% 29.67 in 10.0 mi West 18.4 mph 26.5 mph N/A   Overcast
2:15 PM 47.7 °F - 36.1 °F 64% 29.67 in 10.0 mi West 23.0 mph 29.9 mph N/A   Overcast
2:35 PM 48.2 °F - 36.1 °F 63% 29.67 in 10.0 mi West 19.6 mph 33.4 mph N/A   Overcast
2:55 PM 48.6 °F - 35.4 °F 60% 29.68 in 10.0 mi West 19.6 mph 32.2 mph N/A   Overcast
3:15 PM 49.1 °F - 35.1 °F 58% 29.69 in 10.0 mi West 20.7 mph 32.2 mph N/A   Overcast
3:35 PM 49.3 °F - 33.8 °F 55% 29.70 in 10.0 mi West 21.9 mph 29.9 mph N/A   Overcast
3:55 PM 50.0 °F - 33.3 °F 53% 29.70 in 10.0 mi West 17.3 mph 32.2 mph N/A   Overcast
4:15 PM 50.4 °F - 32.2 °F 50% 29.70 in 10.0 mi West 20.7 mph 31.1 mph N/A   Overcast
4:35 PM 51.1 °F - 31.1 °F 46% 29.71 in 10.0 mi West 18.4 mph 28.8 mph N/A   Mostly Cloudy
4:55 PM 51.6 °F - 31.3 °F 46% 29.72 in 10.0 mi West 16.1 mph 31.1 mph N/A   Mostly Cloudy
5:15 PM 50.4 °F - 29.8 °F 45% 29.73 in 10.0 mi West 17.3 mph 28.8 mph N/A   Scattered Clouds
5:35 PM 49.6 °F - 29.5 °F 46% 29.73 in 10.0 mi West 21.9 mph 28.8 mph N/A   Clear
5:55 PM 48.2 °F - 30.0 °F 49% 29.75 in 10.0 mi West 17.3 mph 26.5 mph N/A   Scattered Clouds
6:15 PM 47.3 °F - 30.7 °F 53% 29.76 in 10.0 mi West 16.1 mph 24.2 mph N/A   Mostly Cloudy
6:55 PM 45.7 °F 40.2 °F 30.9 °F 56% 29.77 in 10.0 mi West 11.5 mph 18.4 mph N/A   Scattered Clouds
7:15 PM 44.8 °F 39.4 °F 31.3 °F 59% 29.78 in 10.0 mi West 10.4 mph 18.4 mph N/A   Clear
7:35 PM 43.9 °F - 31.6 °F 62% 29.78 in 10.0 mi Calm Calm - N/A   Clear
7:55 PM 43.0 °F - 31.8 °F 65% 29.79 in 10.0 mi Calm Calm - N/A   Scattered Clouds
8:15 PM 41.7 °F - 32.0 °F 68% 29.80 in 10.0 mi Calm Calm - N/A   Mostly Cloudy
8:35 PM 41.0 °F - 32.0 °F 70% 29.80 in 10.0 mi Calm Calm - N/A   Mostly Cloudy
8:55 PM 40.5 °F 35.1 °F 32.0 °F 72% 29.80 in 10.0 mi West 8.1 mph - N/A   Clear
9:15 PM 39.7 °F - 32.0 °F 74% 29.80 in 10.0 mi Calm Calm - N/A   Clear
9:35 PM 38.3 °F - 32.0 °F 78% 29.81 in 10.0 mi Calm Calm - N/A   Clear
10:15 PM 37.4 °F - 31.8 °F 80% 29.82 in 10.0 mi Calm Calm - N/A   Clear
10:55 PM 36.1 °F - 31.5 °F 83% 29.82 in 10.0 mi Calm Calm - N/A   Scattered Clouds
11:15 PM 36.1 °F - 31.8 °F 84% 29.82 in 10.0 mi Calm Calm - N/A   Clear
11:35 PM 36.1 °F - 31.8 °F 84% 29.81 in 10.0 mi Calm Calm - N/A   Clear
11:55 PM 36.5 °F - 32.0 °F 84% 29.81 in 10.0 mi Calm Calm - N/A   Clear